[[{"header":{"parameterUnit":"m.s-1","parameterCategory":1,"la1":30.2991,"la2":30.254,"lo1":-89.0895,"lo2":-89.0444,"dy":0.0017,"dx":0.0017,"nx":28,"ny":28,"refTime":"2024-04-03T03:00:00:Z","depth":0,"parameterNumber":2,"parameterNumberName":"U-component_of_WINDS"},"data":[0,0,0,0,0,0,0,0,0,0,0,0,0,0,0,0,0,0,0,0,0,0,0,0,0,0,0,0,0,0,0,0,0,0,0,0,0,0,0,0,0,0,0,0,0,0,0,0,0,0,0,0,0,0,0,0,0,0,3.8725,3.8726,0,3.8802,3.8802,3.8803,3.8783,3.8782,3.878,3.8779,3.8857,3.886,3.8864,0,0,0,0,0,0,0,0,0,0,0,0,0,3.8562,3.8565,3.8725,3.8726,3.8727,3.8801,3.8803,3.8804,3.8784,3.8782,3.878,3.8778,3.8856,3.886,3.8864,0,0,0,0,0,0,0,0,0,0,0,0,0,3.8635,3.8566,3.8725,3.8726,3.8727,3.8801,3.8803,3.8804,3.8784,3.8782,3.8779,3.8777,3.8854,3.8859,3.8865,3.8942,0,0,3.8881,3.8883,0,0,0,0,0,0,0,0,3.8631,3.8641,3.8725,3.8726,3.8727,3.8781,3.8774,3.885,3.8785,3.8762,3.8779,3.8776,3.8833,3.884,3.8859,3.8946,3.8949,3.8881,3.8884,3.8886,3.8888,0,0,0,0,0,0,0,3.8626,3.8638,3.8755,3.8726,3.8727,3.8723,3.8731,3.8788,3.881,3.8764,3.8763,3.8772,3.8833,3.8854,3.8861,3.8951,3.8881,3.8885,3.8889,3.8891,3.9108,3.911,0,0,0,0,0,0,3.862,3.8634,3.8753,3.8757,3.8672,3.8728,3.8736,3.8766,3.8809,3.8813,3.8774,3.8771,3.8847,3.8855,3.8864,3.896,3.8886,3.8891,3.8894,3.9105,3.9109,3.9111,0,0,0,0,0,0,3.8617,3.8631,3.875,3.8695,3.871,3.8733,3.8766,3.8768,3.8789,3.8816,3.882,3.8791,3.8845,3.8856,3.8924,3.8962,3.8894,3.8898,3.9102,3.9106,3.911,3.9151,0,0,0,0,0,0,3.8612,3.863,3.8659,3.8696,3.8713,3.8808,3.8768,3.8772,3.8799,3.8795,3.8834,3.8838,3.8844,3.8916,3.8929,3.8968,3.8902,3.9099,3.9104,3.9109,3.9146,3.9155,3.9164,0,0,0,0,0,3.8606,3.8667,3.8661,3.8675,3.875,3.881,3.882,3.8826,3.8802,3.8832,3.885,3.8837,3.8956,3.8923,3.8937,3.8978,3.9097,3.9103,3.9108,3.9142,3.9154,3.9163,0,0,0,0,0,0,3.8632,3.8671,3.8665,3.8739,3.8772,3.8807,3.8844,3.8838,3.8877,3.8872,3.8878,3.8887,3.8956,3.8974,3.8937,3.9058,3.9023,3.9032,3.9043,3.9055,3.9063,3.9057,3.8907,0,0,0,0,0,3.8647,3.8692,3.8724,3.8786,3.8803,3.8821,3.8847,3.885,3.8883,3.8897,3.8919,3.8953,3.8998,3.9027,3.907,3.9149,3.9158,3.9184,3.9193,3.92,3.9208,3.9253,3.9266,3.9131,3.9131,3.9131,0,0,3.8677,3.8704,3.8732,3.8792,3.8818,3.8865,3.8833,3.8884,3.8919,3.8904,3.897,3.8988,3.9026,3.91,3.9133,3.9116,3.9247,3.9208,3.9213,3.9217,3.926,3.9273,3.9285,3.9135,3.9134,3.9133,0,0,3.8757,3.8781,3.8837,3.8864,3.8903,3.8915,3.8929,3.8965,3.8977,3.9043,3.9034,3.9076,3.9153,3.9181,3.9205,3.9299,3.9289,3.9313,3.9358,3.9402,3.9413,3.9422,3.9457,3.9469,3.932,3.932,3.932,0,3.8789,3.886,3.8866,3.8919,3.8946,3.8937,3.8994,3.9019,3.907,3.909,3.9071,3.9169,3.9193,3.9275,3.9298,3.9317,3.9334,3.9308,3.9411,3.942,3.9429,3.9462,3.9475,3.9323,3.9323,3.9322,3.9322,0,3.8899,3.8948,3.8989,3.904,3.9072,3.9126,3.9142,3.9174,3.9174,3.9188,3.9257,3.9286,3.9336,3.9356,3.9355,3.9438,3.9427,3.9409,3.9374,3.9445,3.9476,3.9489,3.9327,3.9326,3.9325,3.9324,0,0,3.8995,3.9051,3.9065,3.9089,3.9133,3.9172,3.9227,3.9276,3.9304,3.9341,3.9388,3.9455,3.944,3.9467,3.9471,3.9509,3.9584,3.9488,3.9489,3.9505,3.9678,3.9691,3.9706,3.9578,3.958,3.9582,3.9675,0,3.9079,3.9176,3.9184,3.9272,3.9319,3.9312,3.936,3.9393,3.9408,3.9451,3.9468,3.9516,3.9492,3.9509,3.9547,3.9567,3.9619,3.956,3.9622,3.9624,3.9613,3.9722,3.9735,3.9822,3.9687,3.9689,3.9691,0,3.9189,3.923,3.9323,3.9362,3.9382,3.9426,3.9473,3.9513,3.9551,3.956,3.9593,3.9592,3.9649,3.9613,3.9694,3.9654,3.968,3.9694,3.9697,3.9703,3.9662,3.9731,3.9849,3.9862,3.971,3.9708,3.9707,0,3.9252,3.933,3.9396,3.9417,3.9464,3.9495,3.9516,3.9552,3.9582,3.9623,3.9643,3.9691,3.9717,3.9754,3.9767,3.9739,3.9848,3.9811,3.9857,3.9857,3.988,3.9878,4.0004,3.9897,3.9896,3.9896,3.9896,0,3.9345,3.9402,3.9425,3.9465,3.953,3.954,3.9604,3.9623,3.9656,3.9701,3.9697,3.974,3.9753,3.9799,3.9809,3.9875,3.9886,3.9896,3.9898,3.9897,3.9896,3.9914,3.9908,3.99,3.9899,3.9898,3.9898,0,3.9425,3.9442,3.9514,3.9554,3.9566,3.9612,3.9646,3.9686,3.9702,3.9759,3.9773,3.9799,3.9852,3.9868,3.9932,3.9939,4.0017,4.0013,4.0004,4.0005,4.005,4.0046,4.0192,4.0212,4.0091,4.0092,4.0093,0,3.9483,3.9527,3.9573,3.9603,3.9626,3.9674,3.9705,3.9718,3.975,3.9798,3.9833,3.9886,3.9929,4.0014,4.0039,4.0088,4.0086,4.0134,4.0093,4.0091,4.0088,4.0085,4.0091,4.0142,4.0143,4.0144,4.0145,0,3.9585,3.9592,3.9637,3.9686,3.9724,3.9763,3.9801,3.9826,3.9844,3.9881,3.9936,3.9969,4.0036,4.0089,4.014,4.0162,4.0157,4.0158,4.0171,4.017,4.0163,4.0169,4.0026,4.0154,4.0153,4.0152,4.0152,4.0151,3.9657,3.9696,3.9735,3.9786,3.9816,3.9852,3.9892,3.9914,3.996,4.0015,4.002,4.008,4.0119,4.0187,4.0212,4.026,4.0246,4.0265,4.027,4.0275,4.0279,4.0156,4.0269,4.0269,4.0269,4.0268,4.0268,0,3.9759,3.9785,3.9832,3.9885,3.9926,3.9918,3.996,3.9995,4.0048,4.0085,4.0128,4.0192,4.0244,4.0274,4.0326,4.0359,4.0358,4.0372,4.037,4.0376,4.0288,4.0271,4.0372,4.0372,4.0372,4.0372,4.0372,4.0372,3.9817,3.9885,3.9897,3.998,4.0005,4.0064,4.0089,4.0123,4.0153,4.0225,4.0268,4.0287,4.0322,4.0377,4.0425,4.0433,4.0453,4.0469,4.0475,4.0392,4.0381,4.0371,4.0356,4.0473,4.0473,4.0559,4.0559,4.056]},{"header":{"parameterUnit":"m.s-1","parameterCategory":1,"la1":30.2991,"la2":30.254,"lo1":-89.0895,"lo2":-89.0444,"dy":0.0017,"dx":0.0017,"nx":28,"ny":28,"refTime":"2024-04-03T03:00:00:Z","depth":0,"parameterNumber":3,"parameterNumberName":"V-component_of_WINDS"},"data":[0,0,0,0,0,0,0,0,0,0,0,0,0,0,0,0,0,0,0,0,0,0,0,0,0,0,0,0,0,0,0,0,0,0,0,0,0,0,0,0,0,0,0,0,0,0,0,0,0,0,0,0,0,0,0,0,0,0,-6.6061,-6.6063,0,-6.6209,-6.6211,-6.6212,-6.6198,-6.6196,-6.6193,-6.6191,-6.6339,-6.6345,-6.6351,0,0,0,0,0,0,0,0,0,0,0,0,0,-6.5765,-6.577,-6.6061,-6.6063,-6.6065,-6.6209,-6.6211,-6.6213,-6.6198,-6.6196,-6.6193,-6.619,-6.6337,-6.6344,-6.6351,0,0,0,0,0,0,0,0,0,0,0,0,0,-6.5901,-6.5772,-6.6061,-6.6075,-6.6078,-6.6208,-6.6211,-6.6213,-6.6199,-6.6196,-6.6192,-6.6189,-6.6334,-6.6343,-6.6352,-6.6477,0,0,-6.638,-6.6384,0,0,0,0,0,0,0,0,-6.5893,-6.5912,-6.6071,-6.6074,-6.6078,-6.6182,-6.616,-6.6302,-6.62,-6.6153,-6.6191,-6.6187,-6.6289,-6.6302,-6.6337,-6.6484,-6.649,-6.6381,-6.6386,-6.639,-6.6393,0,0,0,0,0,0,0,-6.5884,-6.5905,-6.612,-6.6074,-6.6078,-6.6074,-6.6089,-6.6187,-6.6238,-6.6157,-6.6156,-6.6174,-6.629,-6.6328,-6.634,-6.6492,-6.638,-6.6388,-6.6394,-6.6398,-6.6751,-6.6755,0,0,0,0,0,0,-6.5871,-6.5898,-6.6115,-6.6124,-6.5975,-6.6082,-6.6099,-6.6152,-6.6237,-6.6247,-6.6177,-6.6173,-6.6314,-6.6329,-6.6345,-6.6499,-6.639,-6.6398,-6.6404,-6.6747,-6.6752,-6.6756,0,0,0,0,0,0,-6.5865,-6.5891,-6.6109,-6.6011,-6.6038,-6.609,-6.615,-6.6156,-6.6194,-6.6252,-6.6261,-6.6206,-6.6312,-6.6332,-6.6445,-6.6503,-6.6403,-6.6411,-6.6743,-6.6749,-6.6754,-6.6805,0,0,0,0,0,0,-6.5856,-6.5889,-6.5937,-6.6012,-6.6044,-6.6207,-6.6153,-6.6162,-6.6211,-6.6207,-6.6282,-6.6291,-6.6311,-6.6432,-6.6454,-6.6514,-6.6418,-6.6738,-6.6745,-6.6752,-6.6799,-6.6812,-6.6824,0,0,0,0,0,-6.5846,-6.5944,-6.5939,-6.5966,-6.6105,-6.621,-6.6228,-6.625,-6.6215,-6.6264,-6.6302,-6.6289,-6.6493,-6.6443,-6.6468,-6.6532,-6.6734,-6.6743,-6.6752,-6.6793,-6.6809,-6.6823,0,0,0,0,0,0,-6.5872,-6.5954,-6.595,-6.6075,-6.6136,-6.6208,-6.627,-6.6266,-6.6337,-6.6331,-6.6353,-6.637,-6.6484,-6.6519,-6.6462,-6.6658,-6.6609,-6.6623,-6.6632,-6.6648,-6.666,-6.665,-6.6425,0,0,0,0,0,-6.5893,-6.5973,-6.6039,-6.6143,-6.6174,-6.6217,-6.6264,-6.6275,-6.6339,-6.6364,-6.641,-6.6471,-6.655,-6.66,-6.6675,-6.6803,-6.682,-6.686,-6.6872,-6.6882,-6.6895,-6.6967,-6.6986,-6.6786,-6.6786,-6.6785,0,0,-6.5936,-6.599,-6.6039,-6.615,-6.6199,-6.6281,-6.6239,-6.6326,-6.6387,-6.6377,-6.6487,-6.6523,-6.6593,-6.6715,-6.677,-6.6747,-6.6954,-6.6894,-6.6901,-6.6908,-6.6978,-6.6997,-6.7014,-6.6792,-6.6791,-6.679,0,0,-6.6056,-6.6105,-6.6198,-6.6249,-6.6324,-6.6352,-6.6375,-6.6448,-6.6472,-6.6583,-6.6578,-6.665,-6.6784,-6.6835,-6.6878,-6.7021,-6.7012,-6.7044,-6.711,-6.718,-6.7196,-6.721,-6.7263,-6.7281,-6.7056,-6.7056,-6.7056,0,-6.6099,-6.6224,-6.6246,-6.6336,-6.6386,-6.6382,-6.6477,-6.6524,-6.662,-6.6654,-6.6627,-6.6797,-6.6843,-6.6978,-6.7013,-6.7048,-6.7074,-6.7036,-6.7192,-6.7207,-6.722,-6.727,-6.729,-6.706,-6.7059,-6.7059,-6.7059,0,-6.6274,-6.636,-6.6426,-6.6521,-6.6578,-6.667,-6.6706,-6.6761,-6.6768,-6.6799,-6.6913,-6.697,-6.7057,-6.709,-6.7096,-6.7226,-6.721,-6.7187,-6.7138,-6.7242,-6.729,-6.7309,-6.7065,-6.7064,-6.7063,-6.7062,0,0,-6.6414,-6.6522,-6.6546,-6.659,-6.6674,-6.674,-6.6832,-6.692,-6.6967,-6.7033,-6.7111,-6.7226,-6.7207,-6.7256,-6.7269,-6.733,-6.7442,-6.7301,-6.7303,-6.7326,-6.759,-6.7607,-6.7629,-6.7437,-6.744,-6.7443,-6.7584,0,-6.6543,-6.6708,-6.6732,-6.6877,-6.6958,-6.6957,-6.7037,-6.7097,-6.7129,-6.7202,-6.7236,-6.7318,-6.7286,-6.7316,-6.7377,-6.7415,-6.7495,-6.7405,-6.751,-6.7513,-6.7493,-6.7653,-6.7671,-6.7801,-6.7603,-6.7606,-6.7608,0,-6.6716,-6.679,-6.6944,-6.7019,-6.7054,-6.7126,-6.7209,-6.7278,-6.7347,-6.7366,-6.7422,-6.7428,-6.7524,-6.7471,-6.7603,-6.7541,-6.7585,-6.7611,-6.7617,-6.7628,-6.7567,-6.767,-6.7843,-6.7863,-6.7638,-6.7635,-6.7633,0,-6.6805,-6.6942,-6.7053,-6.709,-6.718,-6.7231,-6.727,-6.7336,-6.7387,-6.746,-6.7494,-6.7576,-6.7621,-6.7684,-6.7712,-6.767,-6.7843,-6.7791,-6.7861,-6.7861,-6.7898,-6.7895,-6.8082,-6.7925,-6.7925,-6.7924,-6.7924,0,-6.6948,-6.7042,-6.7094,-6.7162,-6.7268,-6.7295,-6.7399,-6.7436,-6.7495,-6.757,-6.7573,-6.7644,-6.7676,-6.7751,-6.7773,-6.788,-6.79,-6.7918,-6.7923,-6.7919,-6.7917,-6.7948,-6.794,-6.7929,-6.7928,-6.7927,-6.7926,0,-6.7064,-6.7103,-6.7223,-6.73,-6.7321,-6.7396,-6.7461,-6.7527,-6.7559,-6.7655,-6.7678,-6.7728,-6.7818,-6.7852,-6.7959,-6.7975,-6.8099,-6.8096,-6.8076,-6.8078,-6.8146,-6.814,-6.8361,-6.8392,-6.8213,-6.8215,-6.8216,0,-6.7153,-6.7226,-6.7312,-6.7363,-6.7405,-6.7488,-6.7542,-6.7571,-6.7627,-6.7712,-6.7768,-6.7857,-6.793,-6.8072,-6.8118,-6.8201,-6.8201,-6.8272,-6.8213,-6.8207,-6.8203,-6.8199,-6.8207,-6.8283,-6.8285,-6.8287,-6.8288,0,-6.7308,-6.7324,-6.7402,-6.7488,-6.7553,-6.7621,-6.7687,-6.7729,-6.7768,-6.7831,-6.7923,-6.798,-6.8092,-6.8181,-6.8267,-6.8307,-6.8305,-6.8306,-6.8327,-6.8324,-6.831,-6.832,-6.8108,-6.8301,-6.83,-6.8299,-6.8298,-6.8298,-6.7415,-6.748,-6.7552,-6.7639,-6.7693,-6.7755,-6.7822,-6.7863,-6.7941,-6.8036,-6.8048,-6.8148,-6.8216,-6.8332,-6.8376,-6.8453,-6.8434,-6.8464,-6.8472,-6.8479,-6.8485,-6.8297,-6.8469,-6.8468,-6.8468,-6.8468,-6.8468,0,-6.7571,-6.7617,-6.7697,-6.7792,-6.7861,-6.7854,-6.7928,-6.7986,-6.8074,-6.8138,-6.8211,-6.8318,-6.8405,-6.8458,-6.8545,-6.8598,-6.8599,-6.862,-6.8616,-6.8626,-6.8496,-6.847,-6.8617,-6.8617,-6.8617,-6.8617,-6.8617,-6.8617,-6.766,-6.7772,-6.7797,-6.7935,-6.7981,-6.808,-6.8123,-6.8181,-6.8233,-6.8352,-6.8425,-6.846,-6.8521,-6.8613,-6.8693,-6.8706,-6.8738,-6.8761,-6.8773,-6.865,-6.8635,-6.862,-6.8596,-6.8768,-6.8768,-6.8897,-6.8898,-6.8899]}]]